Theta_e
343 344 344 344 335 334 339 339 338 342 338 336 334 334 333 334 334 335 332 330 328 328 330 328 325 327 323 321 321 320 319 319 315 317 319 323 325 324 325 326 325 326 326
343 342 342 336 335 334 331 340 341 339 337 335 333 333 333 333 334 333 330 327 327 326 327 327 324 323 325 324 320 321 320 320 316 316 319 318 321 325 325 324 323 324 325
339 339 339 337 333 336 333 341 341 340 336 335 334 333 332 332 333 332 329 328 327 326 327 325 324 324 323 320 320 319 318 318 318 315 315 318 319 321 320 322 323 325 325
337 338 337 336 335 338 331 335 338 337 335 335 334 333 333 332 332 331 330 329 328 327 326 325 324 322 320 320 318 319 318 317 317 315 315 315 316 320 318 314 317 319 316
336 335 336 335 335 336 335 330 332 338 335 335 334 334 334 333 330 332 331 330 329 327 325 323 322 319 312 314 313 315 316 313 313 313 312 314 314 315 313 313 311 313 317
333 332 334 334 334 333 334 331 331 333 337 335 333 333 333 330 309 314 326 329 327 324 323 322 321 317 315 310 310 310 311 311 311 311 312 312 315 314 312 309 309 310 309
331 332 332 333 333 332 333 333 335 332 334 336 335 333 333 333 305 306 308 324 323 323 322 321 318 316 313 316 311 309 309 307 307 311 308 311 314 313 313 312 311 311 309
329 330 331 331 331 333 333 334 336 335 335 335 334 334 334 328 303 303 305 319 321 322 321 320 319 318 317 313 313 313 314 316 315 311 310 314 314 315 312 312 313 313 314
326 327 329 329 330 331 331 334 334 333 334 334 334 334 333 320 301 301 307 319 319 319 318 318 317 315 306 300 310 310 311 312 312 305 304 302 300 300 302 306 305 310 307
323 322 328 330 331 330 333 334 336 335 334 333 332 333 323 326 300 302 305 315 316 314 317 316 306 309 302 299 307 307 305 310 312 313 314 310 306 310 302 306 306 306 308
324 320 321 324 331 332 333 335 334 333 332 330 328 327 323 322 311 300 298 310 311 311 311 311 313 300 298 296 296 305 305 308 306 307 309 311 311 311 311 311 312 309 308
320 316 314 316 322 327 329 328 329 327 325 324 323 320 319 319 304 301 296 296 300 308 310 311 313 296 294 294 297 298 296 297 302 304 305 307 308 309 311 312 313 314 314
312 314 313 309 312 313 317 316 315 320 317 316 317 315 315 314 313 299 297 295 295 304 310 305 297 296 295 297 295 295 295 301 303 305 306 307 308 308 309 310 312 314 315
309 311 309 309 309 308 307 309 313 314 313 313 312 312 312 312 314 315 313 311 301 305 305 309 304 299 297 300 301 306 310 311 309 308 306 305 305 304 304 305 306 307 309
314 310 306 306 307 304 301 302 309 303 303 310 310 308 308 310 308 298 299 305 307 303 298 305 307 308 310 312 312 313 312 311 306 305 303 301 300 300 300 301 302 303 304
313 311 306 305 305 303 302 299 293 295 294 293 293 297 308 298 295 293 292 292 291 291 298 303 306 308 309 309 308 307 306 305 305 304 302 301 300 299 299 300 300 299 300
317 313 311 310 306 307 306 305 304 298 294 294 293 293 292 292 292 292 291 291 290 291 299 306 308 308 306 304 304 304 302 303 303 302 300 300 300 300 297 299 299 299 298
312 300 302 302 301 301 303 305 305 305 303 305 294 296 293 292 292 291 291 291 303 302 307 307 305 304 303 302 302 301 300 299 299 299 298 298 299 299 299 298 298 298 298
309 307 306 306 307 305 304 303 305 303 304 306 306 297 297 292 292 292 291 303 303 302 303 302 303 301 301 301 299 298 297 297 296 297 297 297 298 298 298 300 299 294 295
309 298 303 307 305 305 303 303 302 304 304 307 305 305 306 301 303 304 304 304 301 300 301 300 299 299 298 297 296 296 295 295 295 296 296 296 297 297 297 298 299 298 297
307 305 294 308 307 306 305 303 304 306 305 304 305 300 285 298 300 301 301 300 300 299 298 297 296 296 296 296 295 295 295 295 295 295 295 296 296 296 298 299 300 299 299
307 306 306 306 305 305 304 304 304 302 302 303 304 301 289 303 302 300 299 299 299 298 296 295 295 295 295 295 295 295 294 294 295 295 295 296 297 297 299 299 300 299 299
305 304 304 304 303 296 302 303 303 304 303 303 303 303 303 303 302 301 299 298 297 296 295 295 295 295 296 297 297 296 294 294 296 297 298 299 303 302 302 300 300 299 298
302 302 301 302 302 301 302 301 301 295 301 302 302 302 303 303 301 299 297 296 296 296 296 296 296 295 296 296 295 296 297 298 299 301 301 305 303 301 302 301 300 300 299
302 301 300 300 301 301 301 300 300 300 300 300 301 301 302 303 302 301 299 298 297 297 297 296 296 296 295 294 295 293 291 286 288 292 303 306 303 303 302 301 301 300 300
300 301 300 301 300 300 299 299 298 298 298 299 300 301 301 302 302 303 302 300 300 300 300 297 297 296 294 293 292 287 286 286 290 287 301 310 307 305 302 300 301 301 301
Wind_Speed
20 21 20 20 19 16 10 12 14 14 15 17 16 15 14 12 11 8 6 7 6 4 2 2 4 5 6 6 6 7 7 8 11 10 10 10 12 13 11 11 12 12 11
15 20 16 17 18 17 25 21 18 17 17 18 17 16 15 13 11 10 9 7 6 4 2 3 5 5 6 6 7 8 9 9 10 14 11 10 11 11 8 13 11 10 11
18 20 20 20 17 16 4 14 16 17 18 18 17 16 15 14 12 11 8 7 5 4 3 5 6 7 7 7 8 9 9 8 10 11 12 11 10 9 7 11 11 10 9
17 17 19 19 18 18 18 15 12 16 16 16 16 16 14 13 13 11 9 7 6 5 4 5 7 8 8 8 8 10 10 10 11 11 12 11 10 9 7 8 10 8 7
14 15 17 18 19 18 19 17 20 17 17 16 16 15 14 13 11 12 9 8 6 5 5 6 7 5 5 6 8 10 11 11 11 12 12 11 11 9 9 9 9 8 9
11 14 15 18 19 21 21 22 25 21 16 17 16 16 15 11 12 8 8 7 5 5 6 7 8 7 11 14 13 13 11 12 13 12 12 12 13 10 7 8 8 9 9
11 14 15 17 19 20 20 20 17 21 22 18 15 16 15 11 11 9 7 5 5 5 7 8 9 7 3 11 9 13 15 18 17 13 14 15 14 10 10 10 9 10 8
8 10 11 14 17 19 18 19 17 16 17 16 16 16 14 9 12 10 10 5 6 7 7 8 10 11 9 9 12 13 13 14 12 11 14 14 11 10 9 9 12 12 10
6 7 9 12 14 16 19 18 17 17 16 16 15 15 14 12 12 11 8 6 7 6 7 9 9 10 8 4 10 13 14 14 11 12 13 13 14 14 11 9 11 11 10
8 6 10 7 10 13 17 17 16 16 15 13 14 13 10 13 10 10 6 5 6 6 8 9 9 11 8 6 11 11 13 14 12 12 12 11 12 12 14 11 10 12 9
6 6 10 11 4 9 12 11 13 13 14 12 12 10 10 5 11 9 3 5 6 7 7 7 9 9 8 9 11 13 15 13 14 13 13 11 9 11 10 10 13 13 12
11 11 12 9 8 6 11 10 12 13 13 12 11 8 6 6 5 10 7 5 6 8 8 7 9 7 5 10 11 17 12 10 12 12 11 11 10 10 10 11 12 13 13
11 10 14 11 10 9 8 5 8 9 10 10 8 6 5 5 5 11 8 9 12 7 7 9 12 14 16 14 25 28 17 10 11 11 11 11 9 10 11 11 11 13 14
10 9 6 12 7 7 9 7 6 9 7 6 5 3 3 4 3 3 5 6 8 9 10 8 9 12 18 21 15 13 11 10 10 11 11 10 9 8 8 9 10 9 10
8 8 7 4 7 5 10 3 3 10 8 2 3 1 1 4 4 5 4 7 8 10 13 12 11 11 10 10 10 11 9 10 10 10 9 9 8 8 8 7 8 9 10
9 8 6 5 6 6 7 5 5 7 7 7 6 5 1 2 9 7 5 8 12 10 10 12 12 11 11 10 11 11 10 11 10 9 9 9 10 9 9 8 9 9 10
8 9 7 6 5 4 5 4 5 5 3 8 6 4 3 9 8 8 9 11 16 11 11 13 11 10 10 11 9 10 12 10 10 9 9 10 9 9 10 10 9 10 10
8 10 7 5 4 3 3 1 2 2 2 2 7 5 9 9 6 8 9 10 11 8 11 11 11 11 11 9 10 11 10 10 9 10 10 10 9 9 9 10 10 11 10
10 9 9 8 6 7 6 5 3 2 1 2 3 6 10 9 11 14 10 9 8 9 10 10 11 10 10 10 10 10 11 11 10 10 10 10 10 9 10 10 10 11 10
8 9 7 7 8 7 3 4 3 2 1 2 4 5 5 7 8 7 6 7 7 9 10 11 10 10 10 10 10 10 11 11 10 10 10 9 9 10 11 11 10 10 11
8 7 2 6 5 5 5 3 2 1 1 1 3 7 6 5 6 7 7 7 8 9 9 9 9 10 10 10 10 11 11 11 10 10 9 9 9 9 10 10 10 10 10
7 7 5 5 5 4 4 3 3 3 3 3 3 4 5 4 5 6 6 7 8 8 8 9 10 10 10 11 11 11 12 12 10 9 9 10 10 10 10 10 10 10 10
7 7 7 5 6 4 4 4 4 4 4 4 4 4 4 5 5 7 8 8 7 8 8 9 10 10 10 10 10 10 11 11 9 8 9 9 8 6 6 8 10 8 10
7 6 6 6 5 5 5 6 7 5 5 6 5 6 6 8 8 8 5 6 6 8 9 9 9 11 12 10 9 9 9 9 9 9 12 9 5 4 4 5 7 11 10
3 7 6 5 6 7 7 7 7 7 6 6 7 7 8 7 6 6 5 5 6 7 9 8 7 11 12 15 13 15 13 13 12 11 8 7 8 7 5 5 6 7 7
5 7 7 7 7 7 7 7 8 7 7 6 6 7 8 8 8 8 9 7 6 8 11 9 12 16 14 11 14 16 13 12 9 7 7 6 5 6 6 7 10 5 6
Wind_Direction
202 205 192 187 175 160 184 207 176 173 174 177 176 176 182 183 186 196 191 161 170 168 158 282 325 317 315 313 315 301 296 294 291 297 312 312 318 302 308 315 305 305 294
202 207 198 184 182 201 161 191 182 175 179 180 178 181 184 184 182 187 192 168 184 196 220 289 304 313 307 301 290 307 307 300 292 296 301 298 302 303 292 305 302 303 304
211 205 199 195 185 173 186 185 179 176 181 181 182 183 186 183 183 189 192 185 193 211 255 283 298 303 300 307 303 302 301 303 300 298 304 296 300 300 326 286 300 303 279
207 202 205 197 179 177 158 160 203 181 183 186 185 185 188 185 186 182 188 189 206 215 237 276 295 295 292 294 292 296 289 298 297 288 290 298 301 308 293 298 295 317 340
213 200 200 197 187 179 187 157 178 190 185 191 187 189 187 185 191 184 183 197 205 230 259 279 279 307 355 301 291 294 304 292 297 298 297 298 300 319 324 318 296 302 299
200 212 200 203 196 188 171 183 175 167 180 191 190 187 188 195 125 134 179 193 209 248 280 291 291 236 232 222 231 242 268 283 286 290 295 293 296 295 301 298 305 297 299
217 212 206 201 204 194 189 191 187 170 165 180 187 188 188 184 131 141 123 193 230 261 275 282 285 286 278 286 250 225 232 233 237 267 280 280 295 305 302 290 284 285 291
246 230 211 207 206 197 193 195 183 170 163 170 182 187 181 147 143 155 135 217 243 252 273 280 279 287 287 299 291 288 284 285 264 233 232 260 277 293 299 297 293 287 275
347 294 226 213 202 194 187 194 179 176 170 174 180 179 178 144 166 155 162 227 249 267 277 273 280 290 305 89 286 286 286 278 268 216 242 262 272 270 262 283 276 268 271
359 12 338 222 209 185 177 180 177 172 171 172 169 171 163 154 159 144 193 257 270 278 270 273 218 252 263 223 267 280 277 277 286 289 278 249 235 256 226 239 256 260 253
59 28 38 356 185 179 168 160 163 163 151 159 159 159 160 154 140 136 159 287 288 285 287 287 280 171 217 232 234 268 265 293 294 282 276 272 267 263 255 239 235 243 248
84 83 63 31 37 81 128 140 147 140 148 148 146 150 143 149 133 155 161 238 319 270 278 279 277 48 294 269 267 268 260 268 271 266 265 267 265 264 261 251 244 237 247
76 75 89 60 46 71 109 111 126 138 137 148 149 142 157 168 184 160 173 207 221 257 289 318 313 289 278 279 259 255 252 252 257 260 260 266 271 272 271 267 257 252 243
107 87 66 106 78 31 57 341 130 112 104 108 117 145 165 213 238 244 223 225 226 233 233 257 287 284 272 264 279 259 244 242 249 259 264 272 271 266 258 254 256 246 237
136 132 109 76 100 78 61 333 5 56 51 70 104 147 333 282 65 48 357 319 315 325 327 289 282 279 275 280 278 276 276 276 269 261 253 257 254 246 244 242 250 256 249
155 145 131 130 141 145 140 158 53 88 80 82 50 27 18 15 338 359 350 280 274 278 281 276 277 281 287 294 293 297 283 275 267 264 262 255 248 240 239 230 231 236 243
173 159 143 158 137 116 109 143 166 158 121 89 137 199 217 301 314 305 292 282 273 255 246 262 287 291 294 284 287 283 284 281 283 275 270 265 261 248 227 228 224 226 232
119 110 111 108 124 128 82 72 40 336 79 72 191 214 215 227 258 268 270 284 270 211 259 292 295 292 293 294 291 289 287 287 280 271 266 264 258 256 244 227 221 223 224
151 138 140 161 156 130 160 156 155 110 25 299 295 190 212 222 230 240 239 270 302 296 290 292 291 297 297 300 290 288 284 279 275 273 270 265 260 250 247 237 221 213 214
92 72 120 137 154 132 142 134 142 150 251 298 309 308 326 344 301 313 302 301 299 292 301 297 301 308 297 287 287 285 279 275 275 268 263 258 250 242 241 240 219 210 209
127 137 64 143 128 126 134 119 111 251 5 305 270 77 91 310 299 306 316 316 315 309 306 308 303 290 286 286 285 281 277 276 273 270 266 261 255 249 237 234 224 208 207
134 131 122 113 128 134 97 75 44 29 16 359 359 102 144 280 316 321 328 328 318 316 302 297 290 288 287 285 283 280 279 278 273 266 264 260 253 247 237 226 215 202 203
129 130 128 118 86 140 132 80 65 62 55 43 20 11 357 5 354 357 355 326 318 315 306 294 291 289 287 285 279 274 273 271 273 266 265 266 269 244 233 219 204 198 199
133 133 119 107 80 95 95 92 102 72 35 45 28 22 12 20 14 11 327 312 319 310 302 295 291 293 301 299 289 280 277 273 268 262 257 250 266 250 240 209 197 197 198
111 99 101 109 109 110 117 93 87 84 60 44 40 20 23 17 13 11 341 332 319 313 310 314 316 323 320 321 322 320 306 283 259 260 268 235 235 226 207 194 190 192 191
106 101 100 104 101 97 93 86 78 66 62 55 45 38 29 23 20 6 9 7 352 343 353 344 337 342 344 336 334 320 306 301 288 243 243 267 233 210 197 197 198 203 231